Showing default

SKYKRAFT-3D, 57956

Orbit data source: Space-Track

SKYKRAFT-3D, 57956 is a payload satellite owned by SkyKraft (AU) in SSO that was launched on Mon, 12 Jun 2023 UTC via an FALCON 9 launch vehicle from the Air Force Western Test Range (AFWTR). Payload-class satellites include a variety of spacecraft equipped with specific instruments for various scientific and technological missions. These include communications satellites like Starlink; space stations such as the ISS; scientific satellites like the Hubble; Earth observation satellites from companies like Planet Labs, Umbra, and HawkEye 360; GPS; miniature CubeSats for education and research; and military/defense satellites.

Not visible in the next 10 days
Identifier
57956, 2023-084BZ
Orbit
SSO
Country
Flag of AUAU / AUS
Related business
Manufacturer
SkyKraft
Mission
Operational Commercial Communications
Bus & Motor
SKYKRAFT, Unknown motor
Mass
~50 kg wet, ~50 kg dry
Launch date (UTC)
2023-06-12 (3 years ago)
Launch vehicle
FALCON 9
Launch site
Air Force Western Test Range (AFWTR)
Object type
Payload
Rocket body
Debris
Shape & HBR
Box, 0.3 m
Radar Cross Section
0.065 m², Medium (>0.1 m² and < 1m²)

Expand to show TLE details & history
Last TLE update: 16 hours ago

TLE from 16 hours ago
0 SKYKRAFT-3D
1 57956U 23084BZ  26206.92310995  .00322113  43806-4  76295-3 0  9992
2 57956  97.6018  10.8378 0003010 214.3500 145.7582 15.96743518161325
Epoch: 2026-07-25T22:09Z
TLE epoch observation values (Epoch: 2026-07-25T22:09:16.699Z)
Latitude
Longitude
94.88979°
Altitude
288.307 km
Speed
7.734 km/s
True Right ascension
00h 43m 21s
True Declination
0° 00' 00"
Sunlit
Object was in full shadow at epoch
Visualization orbit readout
Latitude
Unknown
Longitude
Unknown
Altitude
Unknown
Speed
Unknown
Apparent Right ascension
Unknown
Apparent Declination
Unknown
Sunlit
N/A
Visualization observer readout
Local Sidereal Time
03:05:46
Azimuth
Unknown
Elevation
Unknown
Doppler factor
Unknown
Orbital elements
Apogee altitude
282.338 km
Perigee altitude
278.33 km
Semi-major axis
6,658.471 km
Eccentricity
0.0003
Inclination
97.6018°
RAAN
10.8378°
Arg. of periapsis
214.35°
True anomaly
145.7776°
Mean anomaly
145.7582°
Eccentric anomaly
145.7679°
Mean motion
3.99467 °/min
Orbital period
90.12 mins
BSTAR
0.00076295
Loading maneuver chart data...
Computing Atmospheric mass density...

Documentation

Showing up to 5 results
|